This is the latest recevied weather packets stored in our database for station/object N7NIP. If no packets are shown the sender has not sent any weather packets the latest 1 day(s).
| Time | Temp. | Humidity | Pressure | Rain* | Wind** | Luminosity | Snow |
|---|---|---|---|---|---|---|---|
| 1777975091 | 9.44° C | 95% | 1027.3 hPa | 0 mm | 0.89 m/s, 93° | 0 W/m² | - |
| 1777974789 | 10° C | 95% | 1027.3 hPa | 0 mm | 0.45 m/s, 79° | 0 W/m² | - |
| 1777974484 | 10° C | 94% | 1027.1 hPa | 0 mm | 0.89 m/s, 86° | 0 W/m² | - |
| 1777974181 | 10° C | 94% | 1027.1 hPa | 0 mm | 0.89 m/s, 103° | 0 W/m² | - |
| 1777973877 | 10° C | 94% | 1027.1 hPa | 0 mm | 0.89 m/s, 88° | 0 W/m² | - |
| 1777973575 | 10° C | 94% | 1027.2 hPa | 0 mm | 0.89 m/s, 88° | 0 W/m² | - |
| 1777973271 | 10° C | 94% | 1027 hPa | 0 mm | 0.89 m/s, 85° | 0 W/m² | - |
| 1777972970 | 10° C | 94% | 1027 hPa | 0 mm | 0.45 m/s, 89° | 0 W/m² | - |
| 1777972667 | 10° C | 94% | 1027 hPa | 0 mm | 0.89 m/s, 113° | 0 W/m² | - |
| 1777972365 | 10° C | 94% | 1027 hPa | 0 mm | 0.89 m/s, 98° | 0 W/m² | - |
| 1777972062 | 10° C | 94% | 1027.1 hPa | 0 mm | 0.89 m/s, 126° | 0 W/m² | - |
| 1777971760 | 10° C | 93% | 1026.9 hPa | 0 mm | 0.89 m/s, 81° | 0 W/m² | - |
| 1777971457 | 10° C | 93% | 1027 hPa | 0 mm | 1.34 m/s, 71° | 0 W/m² | - |
| 1777971156 | 10° C | 92% | 1026.8 hPa | 0 mm | 0.89 m/s, 134° | 0 W/m² | - |
| 1777970852 | 10.56° C | 92% | 1026.9 hPa | 0 mm | 0.89 m/s, 140° | 0 W/m² | - |
| 1777970552 | 10.56° C | 91% | 1026.6 hPa | 0 mm | 0.89 m/s, 103° | 0 W/m² | - |
| 1777970248 | 10.56° C | 91% | 1026.8 hPa | 0 mm | 0.45 m/s, 85° | 0 W/m² | - |
| 1777969945 | 10.56° C | 91% | 1026.8 hPa | 0 mm | 0.45 m/s, 103° | 0 W/m² | - |
| 1777969641 | 10.56° C | 90% | 1026.8 hPa | 0 mm | 0.45 m/s, 103° | 0 W/m² | - |
| 1777969338 | 10.56° C | 90% | 1026.6 hPa | 0 mm | 0.89 m/s, 82° | 0 W/m² | - |
| 1777969033 | 10.56° C | 90% | 1026.9 hPa | 0 mm | 0.45 m/s, 92° | 0 W/m² | - |
| 1777968732 | 10.56° C | 89% | 1026.5 hPa | 0 mm | 0.45 m/s, 99° | 0 W/m² | - |
| 1777968428 | 10.56° C | 91% | 1026.5 hPa | 0 mm | 0.45 m/s, 104° | 0 W/m² | - |
| 1777968124 | 10.56° C | 90% | 1026.5 hPa | 0 mm | 0.89 m/s, 80° | 0 W/m² | - |
| 1777967820 | 10.56° C | 89% | 1026.3 hPa | 0 mm | 0.89 m/s, 64° | 0 W/m² | - |
* Rain latest hour (hover to see other rain measurements)
** Current wind speed in m/s (hover to see current wind gust speed)